User: anonymous   Login
Location: Los Gatos B&B
(42.6926°N, 77.0646°W)
Time: 17:26:54
(UTC-04:00)
Language:

Cosmos 2263 Rocket - Orbit

View from above orbital plane
View from above orbital plane
View from above satellite
View from above satellite

Ground track
Ground track

The orbit data is extracted from the following two-line orbital elements,

1 22803U 93059B   15211.60006091  .00000252  00000-0  14970-3 0  9996
2 22803 070.9891 258.2870 0017698 345.6265 014.4352 14.16717861130897
Epoch (UTC): 30 July 2015 14:24:05
Eccentricity: 0.0017698
inclination: 70.9891°
perigee height: 824 km
apogee height: 849 km
right ascension of ascending node: 258.2870°
argument of perigee: 345.6265°
revolutions per day: 14.16717861
mean anomaly at epoch: 14.4352°
orbit number at epoch: 13089

The dashed part of the orbit path shows where the satellite is in the earth's shadow,  

DLR